STARLINK-11177, 60118

Orbit data source: Space-Track

STARLINK-11177, 60118 is a payload satellite owned by SpaceX/Seattle (US) in LEO that was launched on Mon, 24 Jun 2024 UTC via an FALCON 9 launch vehicle from the Air Force Western Test Range (AFWTR). Payload-class satellites include a variety of spacecraft equipped with specific instruments for various scientific and technological missions. These include communications satellites like Starlink; space stations such as the ISS; scientific satellites like the Hubble; Earth observation satellites from companies like Planet Labs, Umbra, and HawkEye 360; GPS; miniature CubeSats for education and research; and military/defense satellites.

Loading next visibility...
Identifier
60118, 2024-118F
Orbit
LEO
Last TLE update
6 hours ago
Origin
Manufacturer
SpaceX/Seattle
Mission
Operational Commercial Communications
Bus & Motor
STARLINK V2M, Unknown motor
Mass
730 kg wet, ~700 kg dry
Launch date (UTC)
2024-06-24 (1 year ago)
Launch vehicle
FALCON 9
Launch site
Air Force Western Test Range (AFWTR)
Object type
Payload
Rocket body
Debris
Shape & HBR
Box + 2 Pan, 29 m
Radar Cross Section
36.964 m², Large (>1 m²)

Expand to show TLE details & history

TLE from 6 hours ago
0 STARLINK-11177
1 60118U 24118F   25187.61256337 -.00001245  00000-0 -54171-5 0  9995
2 60118  53.1586 354.3688 0001174  29.5603 330.5481 15.69709073 59343
Epoch: 2025-07-06T14:42Z
TLE epoch observation values (Epoch: 2025-07-06T14:42:05.475Z)
Latitude
-0.00001°
Longitude
-150.98777°
Altitude
359.956 km
Speed
7.695 km/s
True Right ascension
23h 37m 28s
True Declination
0° 00' 00"
Sunlit
Object was in full shadow at epoch
Visualization orbit readout
Latitude
-40.31936°
Longitude
168.58609°
Altitude
372.94 km
Speed
7.686 km/s
Apparent Right ascension
20h 45m 38s
Apparent Declination
-39° 58' 06"
Sunlit
Object is in full shadow
Visualization observer readout
Local Sidereal Time
08:34:58
Azimuth
267.68° W
Elevation
-87.956°
Doppler factor
1
Orbital elements
Apogee altitude
360.781 km
Perigee altitude
359.199 km
Semi-major axis
6,738.127 km
Eccentricity
0.00012
Inclination
53.1586°
RAAN
354.3688°
Arg. of periapsis
29.5603°
True anomaly
Unknown
Mean anomaly
330.5481°
Eccentric anomaly
Unknown
Mean motion
3.92405 °/min
Orbital period
91.74 mins
BSTAR
-0.0000054171
Loading maneuver chart data...
Loading SW <> Apogee altitude chart data...
Loading historical data...
Loading historical data...
Loading historical data...
Loading historical data...
Loading historical data...
Loading historical data...
Loading historical data...

STARLINK-11177 Visibility forecast

Observer location: undefined°, undefined°

Span
Click to sort rows by Start time (UTC) header in descending order
Start Az.
Max El. time (UTC)
Max El. Az.
Max El.
End time (UTC)
End Az.
4 mins2025-07-06 21:20:08.812Z290.215° WNW2025-07-06 21:22:08.812Z212.265° SW34.386°2025-07-06 21:24:08.812Z155.227° SSE
4 mins2025-07-07 13:49:08.812Z229.591° WSW2025-07-07 13:51:08.812Z47.578° ENE43.568°2025-07-07 13:53:08.812Z49.717° ENE
4 mins2025-07-07 20:14:08.812Z328.704° NNW2025-07-07 20:15:08.812Z358.745° N36.044°2025-07-07 20:18:08.812Z114.813° SE
|